Wind_Speed
7 6 5 4 4 4 4 4 4 2 2 7 14 19 17 12 9 4 3 7 6 8 8 9 11 6 6 12 11 8 8 15 9 14 11 11 10 12 12 12 10 9 5 19 21
9 8 7 6 5 4 2 1 1 1 1 5 13 20 18 14 9 4 7 7 7 6 13 16 11 7 20 5 10 11 10 9 15 9 15 11 10 14 9 12 6 12 12 15 20
10 10 10 9 8 7 6 4 3 1 2 4 10 19 20 15 8 7 8 8 6 4 16 6 5 15 12 11 18 6 8 14 12 15 13 9 10 8 10 12 16 20 22 14 10
9 10 10 10 10 10 9 8 7 5 4 4 8 17 22 17 3 9 11 9 6 4 15 8 5 11 14 5 9 7 7 9 10 6 8 8 9 5 11 13 15 22 22 23 18
10 11 11 11 11 11 11 11 10 8 7 6 7 14 22 21 6 11 14 10 7 4 10 1 11 12 18 5 4 4 4 9 7 14 9 8 9 7 10 14 17 23 22 22 20
12 12 12 11 12 11 12 13 13 12 10 8 8 11 21 18 20 14 17 12 9 5 6 4 5 4 5 4 2 5 5 5 8 10 8 8 8 8 11 15 19 21 20 20 20
11 11 12 13 13 12 12 13 14 14 13 10 10 12 23 13 20 16 19 14 11 7 3 7 8 7 9 5 1 3 6 5 6 10 8 8 10 10 13 16 18 18 18 18 18
12 11 10 10 11 13 12 12 13 14 14 12 11 12 15 24 18 20 22 17 13 10 8 8 7 9 6 10 5 9 7 4 11 11 13 12 14 13 15 16 17 17 17 17 18
13 13 12 11 10 10 11 11 11 13 14 13 12 13 10 13 17 17 24 17 15 13 11 9 9 9 7 7 7 17 15 14 9 13 11 7 13 18 17 15 15 17 17 16 17
13 12 11 10 10 10 9 9 8 10 13 13 12 11 14 14 13 14 21 15 12 12 15 12 13 9 11 21 11 6 10 3 11 14 11 15 20 18 19 16 15 16 17 15 16
11 10 9 8 8 8 7 5 4 4 13 13 5 8 3 8 12 14 17 17 12 13 16 12 12 7 16 18 5 3 2 8 5 4 8 5 11 15 15 15 16 16 18 16 16
9 7 6 5 5 6 7 12 11 12 4 18 9 10 8 13 12 12 14 17 15 15 13 12 19 14 4 3 4 5 7 10 6 6 6 4 10 11 13 13 16 16 19 18 18
7 5 4 4 4 4 8 10 9 13 8 13 16 13 11 9 9 12 15 13 12 15 15 17 6 4 3 4 8 12 4 6 8 8 12 5 8 10 9 13 15 14 18 19 20
7 6 4 4 2 3 2 5 8 12 5 13 16 12 13 9 10 13 13 12 10 14 15 19 14 9 8 8 9 10 5 7 9 12 17 12 8 9 13 15 17 17 18 20 21
8 6 4 2 3 6 8 7 11 14 5 10 13 10 14 16 14 14 12 13 12 10 14 15 13 12 10 11 11 14 12 11 13 16 10 13 7 4 15 21 22 21 19 20 22
8 7 5 4 4 3 8 11 11 3 2 11 11 14 16 14 7 12 10 13 10 11 13 16 6 10 12 11 10 12 17 18 17 20 10 14 16 7 25 31 27 20 21 20 21
11 10 8 7 8 9 12 13 3 5 9 9 10 17 18 14 12 8 13 13 12 9 13 13 17 11 13 11 9 11 15 22 17 9 4 20 18 7 17 19 25 17 22 21 20
15 15 13 13 15 17 14 3 8 3 9 5 14 15 17 13 10 9 10 12 13 14 15 14 17 20 16 17 14 15 18 19 18 1 7 18 4 4 20 10 8 12 16 21 21
14 15 14 16 12 6 8 6 9 8 5 8 11 15 15 11 1 9 12 11 11 11 13 11 2 9 8 14 12 12 16 19 18 15 15 11 17 18 24 13 11 10 16 20 21
16 18 5 10 10 7 3 8 6 4 4 4 10 11 8 9 7 10 11 5 0 6 9 11 7 3 7 11 13 15 16 17 14 9 9 10 8 2 10 10 7 8 17 20 24
12 14 7 9 7 5 5 8 7 3 5 7 7 4 11 14 9 8 9 6 3 4 6 11 14 6 5 9 15 12 13 15 19 16 4 8 6 13 3 4 4 3 1 14 16
9 2 7 2 6 4 4 5 7 3 5 6 9 9 8 6 5 3 13 10 4 2 5 8 13 14 11 7 5 8 11 12 15 11 13 33 17 18 10 7 4 4 9 14 8
10 3 5 4 11 2 1 1 3 8 3 4 4 6 4 2 2 2 5 2 1 4 6 2 12 16 12 9 8 11 9 12 9 2 7 12 14 14 11 10 5 4 2 8 14
5 3 4 3 1 9 1 1 3 4 3 3 3 3 3 3 5 5 8 2 1 1 1 7 11 15 1 16 16 14 12 5 10 15 14 11 10 17 8 11 10 10 6 2 4
4 2 4 7 1 3 3 0 4 4 3 5 1 2 3 5 5 6 8 2 2 7 3 6 13 13 6 11 11 7 5 7 6 13 12 4 6 4 2 9 13 14 8 7 8
6 6 7 5 4 3 3 1 4 4 4 6 2 3 3 6 8 5 6 4 4 2 5 9 15 13 12 11 7 13 8 9 10 8 12 7 13 6 6 8 8 12 9 4 14
4 7 7 4 3 2 4 3 4 7 1 3 5 6 5 4 8 8 7 8 10 10 9 10 13 13 16 9 13 13 13 13 12 12 6 1 9 5 5 6 12 14 11 9 7
Wind_Direction
310 311 310 311 321 342 11 30 56 73 145 166 179 179 178 173 163 142 107 89 79 90 104 111 93 128 138 96 259 328 72 101 99 111 119 98 104 115 133 131 79 138 248 157 151
292 289 286 283 277 279 292 343 15 98 138 168 182 183 183 177 170 171 130 109 109 113 101 55 18 300 268 122 27 91 99 103 107 111 126 107 109 115 113 131 140 123 157 129 141
286 281 277 272 267 257 253 242 236 207 187 180 181 188 185 181 181 193 152 139 115 110 94 34 23 32 41 102 52 17 68 167 99 98 111 105 108 126 112 142 142 143 141 152 137
287 284 277 268 261 256 246 241 229 220 200 207 185 189 187 178 149 195 175 162 137 121 114 95 265 335 337 105 45 72 103 110 125 127 119 104 122 58 116 144 163 155 151 152 167
285 281 278 273 264 254 244 238 232 224 215 202 195 188 187 181 264 200 188 179 165 152 104 320 308 323 305 59 87 84 108 107 123 140 128 123 124 118 116 144 155 153 154 156 154
284 279 275 270 266 260 250 237 231 224 221 204 202 187 186 182 229 205 195 191 188 183 74 262 307 313 17 35 97 129 111 122 121 128 151 149 139 147 138 149 150 156 160 159 161
295 287 278 269 263 258 252 242 233 226 220 209 202 188 185 190 240 217 202 201 206 193 243 289 271 305 327 300 143 140 100 165 155 136 156 170 166 160 162 158 157 159 162 166 171
294 288 283 279 266 257 250 244 235 227 223 213 201 194 174 226 228 208 205 212 214 221 235 233 243 292 310 315 278 252 190 184 176 168 168 196 176 176 169 166 165 165 167 173 176
294 288 280 273 268 263 251 243 235 225 219 214 202 197 222 234 232 210 207 216 226 233 232 228 248 278 333 253 272 227 218 148 144 207 173 65 189 170 174 171 172 172 174 174 178
297 291 284 272 261 254 251 237 233 225 212 208 214 199 242 242 228 205 205 205 237 245 255 250 271 286 93 266 291 49 115 100 143 194 221 227 161 177 172 176 179 179 182 178 179
305 299 288 273 262 250 235 195 132 259 216 166 279 179 292 207 188 199 201 213 216 236 247 253 262 282 258 242 312 340 332 124 123 136 221 174 144 170 177 182 183 185 188 184 187
312 302 292 274 263 239 204 168 213 195 193 196 152 193 176 177 189 199 199 210 219 234 245 253 238 261 295 301 264 274 296 93 61 155 176 182 170 168 187 194 195 196 195 191 188
340 331 314 292 278 229 209 206 216 194 171 219 211 209 202 189 195 209 201 201 215 231 231 241 300 124 314 280 267 257 334 357 342 145 302 123 101 155 200 210 207 204 201 199 191
344 339 331 315 295 158 214 198 172 178 207 197 199 209 206 188 206 220 209 193 212 235 229 236 242 269 256 269 289 27 342 301 289 279 204 218 171 272 209 213 212 208 202 203 198
356 350 351 21 124 107 218 167 163 161 263 165 173 200 190 184 174 183 213 189 234 230 221 240 240 259 259 250 298 285 324 296 282 280 294 134 354 5 209 213 213 211 204 204 205
24 32 44 80 117 125 145 152 155 221 226 156 187 178 181 188 192 166 198 198 219 265 237 246 285 242 243 256 266 273 294 291 266 256 138 134 193 182 226 213 193 197 205 200 210
47 56 67 91 119 127 136 120 286 265 204 154 188 173 178 187 188 205 193 205 206 218 224 238 239 245 233 249 257 263 280 287 294 221 145 138 72 322 250 247 221 177 196 199 202
66 69 81 98 109 125 134 29 192 284 120 127 154 164 178 177 191 187 189 204 223 249 269 219 217 220 224 229 250 261 282 290 302 288 90 49 35 277 283 310 125 153 188 196 198
76 84 87 96 99 74 45 300 341 54 65 133 147 168 188 182 169 195 204 210 213 222 273 321 196 146 207 229 237 255 256 320 310 292 90 130 83 69 344 97 133 136 173 192 195
72 70 34 78 77 63 46 35 67 100 76 153 165 175 163 187 215 200 182 191 353 246 259 269 290 208 218 233 232 249 271 298 281 292 93 96 79 199 15 56 100 147 190 185 189
79 64 139 98 78 44 316 58 73 65 9 54 218 86 190 164 203 219 160 120 206 304 256 248 269 197 223 217 222 219 246 257 278 309 87 148 170 116 120 106 122 170 110 171 179
73 304 149 128 351 309 69 26 29 45 15 19 33 45 49 114 217 203 98 106 118 314 275 243 262 276 222 176 239 252 277 281 246 1 351 118 160 138 132 116 51 266 55 107 160
59 95 186 356 327 26 123 11 45 44 15 24 24 22 34 318 335 4 63 33 218 331 297 347 241 252 196 180 215 238 271 276 306 160 30 322 132 109 111 94 53 347 349 146 140
76 306 240 309 8 7 108 346 3 348 5 2 346 292 275 268 244 316 257 322 278 274 260 251 266 279 49 283 303 203 237 271 289 298 74 121 125 69 52 24 4 350 351 312 219
28 338 154 354 335 352 335 155 349 1 1 341 336 300 299 297 257 244 246 285 248 278 260 265 267 309 324 168 289 330 196 197 250 289 336 33 109 109 340 352 345 331 306 268 227
165 167 191 319 317 310 299 268 321 313 335 11 295 347 327 266 304 316 2 212 282 275 267 258 272 289 299 294 251 282 297 267 274 284 303 328 95 92 93 51 351 335 318 283 247
211 212 156 346 339 288 343 342 307 324 327 329 316 315 302 296 253 268 261 249 257 277 272 276 285 301 299 273 269 250 250 258 302 250 239 32 97 79 68 45 355 338 326 321 292
Height
3174 3174 3173 3172 3171 3170 3170 3169 3169 3168 3167 3168 3168 3169 3170 3171 3171 3171 3171 3171 3169 3168 3167 3167 3165 3168 3167 3165 3163 3163 3168 3168 3170 3171 3175 3176 3176 3175 3177 3179 3179 3179 3177 3183 3187
3173 3172 3171 3171 3171 3170 3170 3170 3169 3169 3168 3168 3168 3169 3171 3172 3172 3172 3173 3172 3171 3171 3171 3169 3175 3175 3162 3150 3165 3161 3167 3170 3170 3173 3176 3177 3177 3178 3181 3181 3183 3182 3182 3185 3190
3171 3170 3169 3169 3169 3169 3169 3169 3169 3169 3168 3168 3168 3169 3171 3173 3174 3173 3173 3174 3173 3172 3170 3179 3174 3169 3159 3165 3167 3168 3169 3167 3173 3174 3175 3178 3180 3181 3182 3184 3184 3185 3188 3187 3190
3169 3168 3167 3167 3167 3167 3167 3168 3168 3168 3168 3168 3168 3169 3171 3174 3177 3174 3174 3175 3175 3174 3173 3176 3177 3172 3171 3170 3169 3170 3175 3178 3179 3178 3179 3181 3183 3183 3184 3186 3185 3188 3189 3195 3197
3167 3166 3165 3164 3164 3164 3164 3165 3166 3167 3167 3167 3168 3169 3171 3173 3173 3173 3175 3175 3176 3176 3174 3180 3179 3176 3174 3177 3175 3175 3175 3177 3177 3177 3180 3182 3183 3185 3186 3187 3186 3189 3192 3196 3200
3165 3163 3162 3162 3161 3162 3162 3162 3164 3165 3166 3167 3167 3168 3171 3175 3170 3174 3175 3176 3176 3176 3176 3181 3181 3180 3178 3179 3178 3178 3179 3179 3178 3179 3181 3182 3184 3184 3186 3188 3189 3190 3194 3197 3201
3161 3161 3159 3159 3159 3159 3159 3160 3161 3163 3164 3166 3167 3168 3170 3173 3169 3173 3175 3176 3177 3176 3180 3183 3180 3180 3180 3179 3180 3180 3182 3178 3180 3179 3180 3180 3182 3184 3184 3189 3191 3192 3195 3198 3202
3158 3158 3157 3156 3156 3156 3157 3157 3159 3161 3163 3164 3166 3167 3171 3168 3170 3171 3174 3176 3177 3177 3177 3177 3179 3180 3181 3180 3180 3176 3176 3176 3178 3179 3177 3184 3184 3185 3185 3189 3192 3194 3197 3199 3202
3155 3155 3154 3154 3153 3153 3154 3155 3156 3158 3160 3163 3165 3167 3170 3168 3169 3171 3173 3176 3177 3178 3178 3178 3179 3182 3187 3180 3176 3177 3171 3174 3177 3176 3177 3186 3186 3190 3188 3190 3193 3195 3198 3200 3202
3153 3152 3151 3151 3151 3151 3151 3153 3155 3157 3159 3161 3164 3168 3167 3167 3167 3170 3173 3177 3179 3179 3179 3179 3180 3186 3190 3178 3172 3168 3170 3172 3174 3177 3178 3173 3176 3189 3188 3190 3193 3196 3198 3200 3202
3150 3149 3148 3148 3148 3149 3151 3153 3158 3159 3157 3160 3164 3165 3166 3167 3168 3170 3172 3176 3179 3180 3179 3181 3183 3183 3179 3177 3176 3172 3169 3170 3174 3179 3179 3182 3185 3187 3187 3190 3192 3195 3197 3200 3202
3148 3147 3146 3146 3147 3147 3149 3151 3152 3154 3157 3158 3163 3165 3167 3167 3168 3170 3172 3176 3178 3178 3179 3181 3180 3178 3176 3176 3177 3172 3169 3171 3176 3177 3173 3176 3181 3185 3188 3191 3193 3194 3196 3199 3202
3147 3146 3145 3145 3145 3146 3147 3148 3150 3154 3156 3158 3160 3162 3164 3167 3169 3170 3171 3174 3177 3178 3178 3177 3177 3173 3177 3177 3174 3169 3170 3173 3176 3175 3177 3174 3180 3184 3188 3190 3192 3194 3196 3198 3201
3146 3145 3145 3145 3146 3145 3146 3148 3150 3153 3156 3157 3158 3161 3165 3166 3169 3170 3170 3175 3176 3177 3178 3176 3176 3178 3178 3176 3172 3170 3173 3175 3175 3172 3171 3180 3179 3178 3185 3187 3190 3193 3195 3197 3199
3146 3145 3144 3143 3145 3146 3148 3149 3150 3154 3151 3155 3158 3161 3163 3164 3168 3171 3171 3174 3174 3176 3177 3174 3174 3175 3176 3176 3174 3172 3173 3174 3173 3171 3170 3185 3185 3176 3177 3179 3184 3189 3192 3195 3197
3147 3146 3145 3145 3146 3147 3148 3149 3153 3159 3150 3154 3156 3158 3163 3165 3168 3169 3171 3173 3175 3174 3174 3172 3174 3175 3175 3175 3174 3175 3172 3169 3167 3164 3168 3172 3184 3179 3167 3164 3171 3179 3189 3193 3194
3149 3147 3146 3146 3147 3148 3150 3153 3160 3152 3153 3153 3155 3157 3162 3165 3166 3169 3170 3172 3173 3174 3171 3172 3172 3174 3175 3175 3175 3174 3171 3163 3157 3156 3168 3172 3176 3179 3168 3157 3158 3171 3184 3190 3193
3152 3151 3150 3150 3150 3151 3154 3160 3161 3147 3148 3150 3154 3158 3161 3162 3165 3168 3170 3171 3172 3171 3166 3166 3166 3168 3172 3174 3174 3172 3170 3166 3159 3157 3161 3173 3185 3181 3169 3165 3164 3174 3182 3187 3190
3156 3155 3156 3155 3156 3157 3158 3159 3153 3152 3152 3152 3156 3158 3158 3162 3164 3166 3167 3168 3168 3170 3169 3165 3163 3168 3170 3172 3175 3172 3168 3166 3159 3156 3164 3186 3181 3183 3170 3176 3172 3178 3180 3182 3184
3161 3157 3163 3160 3159 3159 3159 3158 3157 3157 3155 3155 3154 3155 3156 3161 3164 3162 3165 3166 3167 3170 3170 3167 3167 3167 3169 3171 3172 3172 3170 3167 3160 3155 3178 3194 3187 3182 3181 3181 3181 3178 3175 3175 3176
3162 3163 3165 3162 3161 3161 3160 3161 3161 3160 3157 3159 3156 3154 3153 3159 3160 3161 3163 3168 3170 3171 3171 3170 3167 3167 3168 3168 3167 3170 3169 3168 3162 3158 3158 3178 3190 3183 3185 3186 3182 3179 3182 3162 3182
3165 3167 3167 3163 3163 3163 3163 3164 3162 3162 3161 3159 3157 3156 3156 3159 3161 3161 3161 3165 3169 3171 3170 3169 3166 3163 3162 3165 3166 3165 3165 3164 3161 3160 3161 3168 3185 3176 3185 3185 3179 3178 3181 3161 3184
3164 3169 3168 3166 3166 3164 3166 3166 3166 3164 3164 3163 3162 3162 3163 3164 3164 3163 3164 3167 3169 3171 3169 3168 3165 3162 3160 3163 3165 3167 3165 3164 3164 3163 3165 3168 3180 3176 3180 3178 3178 3175 3174 3179 3182
3167 3171 3170 3170 3168 3166 3166 3167 3167 3167 3167 3167 3167 3167 3167 3167 3167 3166 3167 3168 3169 3171 3170 3169 3166 3164 3166 3167 3165 3165 3165 3167 3168 3165 3167 3173 3174 3161 3176 3175 3177 3176 3174 3174 3177
3171 3171 3169 3170 3169 3168 3168 3168 3168 3168 3168 3168 3168 3168 3168 3167 3167 3168 3167 3168 3169 3170 3171 3171 3167 3166 3169 3166 3165 3163 3163 3166 3169 3169 3170 3173 3172 3175 3176 3174 3176 3176 3176 3177 3178
3167 3167 3168 3171 3171 3170 3170 3169 3170 3169 3170 3169 3169 3169 3170 3170 3169 3167 3166 3169 3170 3171 3171 3170 3169 3167 3166 3164 3166 3165 3165 3166 3168 3171 3172 3175 3173 3174 3176 3176 3176 3177 3176 3178 3178
3167 3168 3169 3171 3170 3171 3169 3170 3170 3170 3170 3170 3169 3169 3169 3166 3166 3166 3167 3168 3170 3170 3171 3171 3169 3167 3165 3165 3165 3165 3165 3167 3169 3169 3172 3174 3177 3178 3177 3177 3176 3175 3176 3177 3176